Tracking 29493 objects as of 8-Sep-2024
HD Live streaming from Space Station
objects crossing your sky now

DMSP 5D-3 F19 DEB

Track DMSP 5D-3 F19 DEB now!
10-day predictions


NORAD ID: 39632
Int'l Code: 2014-015C
Perigee: 822.1 km
Apogee: 829.1 km
Inclination: 98.7 °
Period: 101.3 minutes
Semi major axis: 7196 km
RCS: Unknown
Launch date: April 3, 2014
Source: United States (US)
Launch site: AIR FORCE WESTERN TEST RANGE (AFWTR)

Note: This is SATELLITE DEBRIS
Your satellite tracking list
Your tracking list is empty




NASA's NSSDC Master Catalog

Two Line Element Set (TLE):
1 39632U 14015C   24252.56538727  .00006406  00000-0  29142-2 0  9998
2 39632  98.6802 261.8724 0004864 181.8676 178.2484 14.22040523539696
Source of the keplerian elements: AFSPC